TimeCST,TemperatureF,Dew PointF,Humidity,Sea Level PressureIn,VisibilityMPH,Wind Direction,Wind SpeedMPH,Gust SpeedMPH,PrecipitationIn,Events,Conditions,WindDirDegrees,DateUTC
12:34 AM,50.0,50.0,100,29.51,4.0,SW,10.4,-,0.04,,Overcast,220,2012-11-11 06:34:00
12:55 AM,50.0,49.3,97,29.51,7.0,WSW,12.7,21.9,0.05,,Overcast,240,2012-11-11 06:55:00
1:15 AM,48.7,47.7,96,29.53,10.0,WSW,13.8,20.7,0.01,,Overcast,250,2012-11-11 07:15:00
1:35 AM,45.1,44.2,97,29.56,-9999.0,WSW,11.5,-,N/A,,Unknown,240,2012-11-11 07:35:00
1:54 AM,43.5,43.0,98,29.58,4.0,WSW,10.4,-,N/A,,Overcast,250,2012-11-11 07:54:00
2:15 AM,42.3,41.9,99,29.58,7.0,West,9.2,-,0.01,,Overcast,270,2012-11-11 08:15:00
2:34 AM,41.4,40.8,98,29.60,5.0,West,12.7,-,0.02,,Overcast,280,2012-11-11 08:34:00
2:54 AM,40.1,39.4,97,29.60,10.0,West,11.5,-,0.02,,Overcast,280,2012-11-11 08:54:00
3:15 AM,38.7,37.4,95,29.60,10.0,West,11.5,16.1,N/A,,Overcast,270,2012-11-11 09:15:00
3:34 AM,37.4,36.0,95,29.63,10.0,West,11.5,18.4,0.01,,Overcast,280,2012-11-11 09:34:00
3:55 AM,36.5,34.5,93,29.65,10.0,West,10.4,16.1,0.01,,Overcast,270,2012-11-11 09:55:00
4:14 AM,36.0,34.0,93,29.65,10.0,West,10.4,-,0.01,,Overcast,270,2012-11-11 10:14:00
4:35 AM,35.6,33.1,91,29.66,10.0,West,11.5,19.6,0.01,,Overcast,270,2012-11-11 10:35:00
4:54 AM,35.2,33.6,94,29.67,10.0,West,9.2,-,0.01,,Overcast,270,2012-11-11 10:54:00
5:14 AM,34.7,32.9,93,29.68,10.0,West,9.2,-,0.01,,Overcast,280,2012-11-11 11:14:00
5:34 AM,34.2,32.9,95,29.68,10.0,WNW,13.8,-,0.01,,Overcast,290,2012-11-11 11:34:00
5:54 AM,32.9,32.0,96,29.70,10.0,West,12.7,19.6,0.01,,Overcast,270,2012-11-11 11:54:00
6:14 AM,32.0,30.4,94,29.70,10.0,West,10.4,-,N/A,,Overcast,280,2012-11-11 12:14:00
6:34 AM,31.6,29.7,92,29.71,10.0,WNW,15.0,18.4,N/A,,Overcast,290,2012-11-11 12:34:00
6:55 AM,31.1,28.6,90,29.73,10.0,West,13.8,18.4,N/A,,Overcast,270,2012-11-11 12:55:00
7:35 AM,30.7,28.2,90,29.73,10.0,West,12.7,17.3,N/A,,Overcast,280,2012-11-11 13:35:00
7:54 AM,30.2,27.1,88,29.74,10.0,West,15.0,20.7,N/A,,Overcast,280,2012-11-11 13:54:00
8:14 AM,30.0,27.1,89,29.76,10.0,West,12.7,20.7,N/A,,Overcast,270,2012-11-11 14:14:00
8:34 AM,29.7,27.0,90,29.75,7.0,West,15.0,-,N/A,,Overcast,270,2012-11-11 14:34:00
8:54 AM,29.7,26.4,88,29.76,10.0,West,11.5,-,N/A,,Overcast,280,2012-11-11 14:54:00
9:15 AM,29.3,26.1,88,29.79,10.0,West,13.8,18.4,N/A,,Overcast,270,2012-11-11 15:15:00
9:55 AM,28.9,25.0,85,29.77,10.0,West,10.4,20.7,N/A,,Overcast,280,2012-11-11 15:55:00
10:14 AM,28.4,24.6,86,29.76,10.0,West,13.8,20.7,N/A,,Overcast,280,2012-11-11 16:14:00
10:34 AM,28.4,24.8,86,29.77,10.0,WNW,12.7,23.0,N/A,,Overcast,290,2012-11-11 16:34:00
10:55 AM,28.0,24.4,86,29.78,10.0,West,15.0,23.0,N/A,,Overcast,280,2012-11-11 16:55:00
11:14 AM,28.2,24.3,85,29.78,10.0,West,11.5,-,N/A,,Overcast,280,2012-11-11 17:14:00
11:34 AM,28.0,24.4,86,29.79,10.0,WNW,13.8,-,N/A,,Overcast,290,2012-11-11 17:34:00
11:55 AM,27.5,23.0,83,29.80,10.0,West,15.0,-,N/A,,Overcast,270,2012-11-11 17:55:00
12:14 PM,27.5,23.4,84,29.80,10.0,West,13.8,19.6,N/A,,Overcast,270,2012-11-11 18:14:00
12:34 PM,28.4,23.4,81,29.78,10.0,WNW,15.0,21.9,N/A,,Overcast,300,2012-11-11 18:34:00
12:55 PM,27.9,23.4,83,29.77,10.0,West,15.0,20.7,N/A,,Overcast,280,2012-11-11 18:55:00
1:14 PM,27.7,22.5,81,29.80,10.0,West,15.0,18.4,N/A,,Overcast,270,2012-11-11 19:14:00
1:35 PM,27.1,22.1,81,29.80,10.0,WNW,12.7,20.7,N/A,,Overcast,290,2012-11-11 19:35:00
1:54 PM,26.4,21.2,81,29.81,10.0,West,12.7,21.9,N/A,,Overcast,270,2012-11-11 19:54:00
2:14 PM,26.6,21.9,82,29.79,10.0,WNW,12.7,16.1,N/A,,Overcast,290,2012-11-11 20:14:00
2:35 PM,26.2,21.2,81,29.80,10.0,West,10.4,-,N/A,,Overcast,280,2012-11-11 20:35:00
2:55 PM,25.7,21.0,82,29.80,10.0,WNW,13.8,18.4,N/A,,Overcast,290,2012-11-11 20:55:00
3:14 PM,25.7,20.1,79,29.81,10.0,WNW,15.0,20.7,N/A,,Overcast,300,2012-11-11 21:14:00
3:35 PM,25.7,20.1,79,29.82,10.0,WNW,10.4,-,N/A,,Overcast,290,2012-11-11 21:35:00
3:54 PM,25.7,19.4,77,29.82,10.0,WNW,10.4,17.3,N/A,,Overcast,290,2012-11-11 21:54:00
4:15 PM,25.5,19.4,78,29.82,10.0,WNW,13.8,-,N/A,,Overcast,300,2012-11-11 22:15:00
4:34 PM,25.7,19.4,77,29.84,10.0,WNW,12.7,-,N/A,,Overcast,290,2012-11-11 22:34:00
4:55 PM,25.2,18.1,75,29.84,10.0,West,17.3,23.0,N/A,,Overcast,280,2012-11-11 22:55:00
5:14 PM,25.0,18.1,75,29.85,10.0,West,13.8,19.6,N/A,,Overcast,280,2012-11-11 23:14:00
5:35 PM,24.6,17.4,74,29.85,10.0,West,11.5,21.9,N/A,,Overcast,280,2012-11-11 23:35:00
5:55 PM,24.8,17.6,74,29.87,10.0,WNW,11.5,17.3,N/A,,Overcast,290,2012-11-11 23:55:00
6:14 PM,24.8,17.6,74,29.87,10.0,West,13.8,19.6,N/A,,Overcast,280,2012-11-12 00:14:00
6:34 PM,24.4,17.6,75,29.88,10.0,West,10.4,18.4,N/A,Snow,Light Snow,280,2012-11-12 00:34:00
6:55 PM,24.3,17.6,76,29.87,10.0,West,11.5,-,N/A,Snow,Light Snow,280,2012-11-12 00:55:00
7:14 PM,24.1,17.1,75,29.88,10.0,West,11.5,18.4,N/A,,Overcast,280,2012-11-12 01:14:00
7:35 PM,23.7,16.5,74,29.89,10.0,West,13.8,20.7,N/A,,Overcast,260,2012-11-12 01:35:00
7:54 PM,23.4,16.3,75,29.89,10.0,West,11.5,18.4,N/A,Snow,Light Snow,270,2012-11-12 01:54:00
8:14 PM,23.0,16.0,74,29.90,10.0,West,9.2,17.3,N/A,,Overcast,270,2012-11-12 02:14:00
8:35 PM,22.5,16.3,77,29.91,10.0,West,10.4,19.6,N/A,Snow,Light Snow,260,2012-11-12 02:35:00
8:55 PM,21.9,15.3,76,29.92,10.0,WSW,13.8,20.7,N/A,,Overcast,250,2012-11-12 02:55:00
9:15 PM,21.2,14.0,74,29.92,10.0,WSW,10.4,21.9,N/A,,Overcast,250,2012-11-12 03:15:00
9:34 PM,21.2,14.0,74,29.92,10.0,West,11.5,17.3,N/A,,Overcast,260,2012-11-12 03:34:00
9:55 PM,21.0,13.8,74,29.92,10.0,WSW,16.1,19.6,N/A,,Overcast,250,2012-11-12 03:55:00
10:14 PM,20.7,13.8,75,29.93,10.0,WSW,12.7,18.4,N/A,Snow,Light Snow,250,2012-11-12 04:14:00
10:34 PM,20.8,12.4,70,29.92,10.0,West,15.0,20.7,N/A,,Overcast,270,2012-11-12 04:34:00
10:55 PM,20.5,13.1,73,29.92,10.0,West,11.5,20.7,N/A,Snow,Light Snow,270,2012-11-12 04:55:00
11:14 PM,20.5,12.7,72,29.92,10.0,West,13.8,21.9,N/A,,Overcast,270,2012-11-12 05:14:00
11:35 PM,20.3,11.8,70,29.92,10.0,West,11.5,20.7,N/A,,Overcast,270,2012-11-12 05:35:00
11:54 PM,20.3,12.2,71,29.92,10.0,West,10.4,18.4,N/A,,Overcast,260,2012-11-12 05:54:00